User: anonymous   Login
Location: Dugenta
(41.1333°N, 14.4500°E)
Time: 14:20:50
(UTC+00:00)
Language:

Cosmos 2278 Rocket - Orbit

View from above orbital plane
View from above orbital plane
View from above satellite
View from above satellite

Ground track
Ground track

The orbit data is extracted from the following two-line orbital elements,

1 23088U 94023B   21137.49778789 -.00000160  00000-0 -58287-4 0  9995
2 23088  70.9986 159.9839 0000832  71.9983 288.1230 14.14689262397552
Epoch (UTC): 17 May 2021 11:56:48
Eccentricity: 0.0000832
inclination: 70.9986°
perigee height: 843 km
apogee height: 844 km
right ascension of ascending node: 159.9839°
argument of perigee: 71.9983°
revolutions per day: 14.14689262
mean anomaly at epoch: 288.1230°
orbit number at epoch: 39755

The dashed part of the orbit path shows where the satellite is in the earth's shadow,  

DLR